Project,Study,Ord_Occ,Event_Num,Cast_ID,Date_Time_UTC,Date_Time_PST,Lat_Dec,Lon_Dec,Sta_ID,Line,Sta,Depth,Pressure,PrQ,Temp1,Temp1Q,Temp2,Temp2Q,TempAve,Salt1,Salt1Q,Salt1_Corr,Salt2,Salt2Q,Salt2_Corr,SaltAve_Corr,Ox1,Ox1Q,Ox1_CruiseCorr,Ox1_StaCorr,Ox2,Ox2Q,Ox2_CruiseCorr,Ox2_StaCorr,OxAve_StaCorr,Ox1uM,Ox1uM_CruiseCorr,Ox1uM_StaCorr,Ox2uM,Ox2uM_CruiseCorr,Ox2uM_StaCorr,OxAveuM_StaCorr,FluorV,FluorQ,EstChl_CruiseCorr,EstChl_StaCorr,ISUSV,ISUSQ,EstNO3_CruiseCorr,EstNO3_StaCorr,SigThetaTS1,SigThetaTS1Q,SigThetaTS2,SigThetaTS2Q,BAT,XMiss,TransQ,pH,pHQ,SPAR,SPARQ,PAR,PARQ,PoT1,PoT2,DynHt,SVA,OxSat1,OxSat2,BTL_Depth,BTL_Temp,SaltB,OxB,OxBuM,Chl-a,Phaeo,NO3,NO2,NH4,PO4,SIL
CalCOFI,2007SR,060,62,2007_060u,24-Jul-2020 23:20:58,24-Jul-2020 15:20:58,32.81714,-123.90772,080.0 100.0,080.0,100.0,517.000,521.319,,5.8512,,5.8487,,5.8500,34.2082,,34.2084,34.2097,,34.2113,34.2099,0.4667,,0.4700,0.4591,,,,,,20.294,20.6968,33.8345,,,,,0.0310,,,,-99.0,,-99.0,-99.0,26.9512,,26.9527,,0.6391,85.2342,,7.519,,9.1416E+02,,1.0000E-12,,5.8065,5.8040,1.0483,,6.696,,,,,,,,,,,,,
CalCOFI,2007SR,060,62,2007_060u,24-Jul-2020 23:22:19,24-Jul-2020 15:22:19,32.81713,-123.90772,080.0 100.0,080.0,100.0,516.000,520.309,,5.8166,,5.8166,,5.8166,34.2084,,34.2086,34.2103,,34.2119,34.2103,0.4565,,0.4593,0.4484,,,,,,19.854,20.2375,33.4500,,,,,0.0326,,,,-99.0,,-99.0,-99.0,26.9556,,26.9571,,0.6390,85.2358,,7.520,,1.0304E+03,,1.0000E-12,,5.7720,5.7720,1.0564,,6.545,,516,5.817,34.2103,0.456,19.91,,,39.38,0.00,0.00,3.11,79.36
CalCOFI,2007SR,060,62,2007_060u,24-Jul-2020 23:22:47,24-Jul-2020 15:22:47,32.81716,-123.90774,080.0 100.0,080.0,100.0,515.000,519.300,,5.7940,,5.7957,,5.7949,34.2073,,34.2075,34.2087,,34.2103,34.2089,0.4548,,0.4575,0.4466,,,,,,19.777,20.1571,33.3827,,,,,0.0327,,,,-99.0,,-99.0,-99.0,26.9575,,26.9584,,0.6375,85.2682,,7.523,,1.0317E+03,,1.0000E-12,,5.7497,5.7514,1.0580,,6.517,,,,,,,,,,,,,
CalCOFI,2007SR,060,62,2007_060u,24-Jul-2020 23:22:49,24-Jul-2020 15:22:49,32.81716,-123.90772,080.0 100.0,080.0,100.0,514.000,518.290,,5.7853,,5.7849,,5.7851,34.2066,,34.2068,34.2081,,34.2097,34.2083,0.4642,,0.4673,0.4565,,,,,,20.189,20.5872,33.7427,,,,,0.0318,,,,-99.0,,-99.0,-99.0,26.9580,,26.9592,,0.6375,85.2677,,7.523,,1.0302E+03,,1.0000E-12,,5.7411,5.7406,1.0579,,6.651,,,,,,,,,,,,,
CalCOFI,2007SR,060,62,2007_060u,24-Jul-2020 23:22:50,24-Jul-2020 15:22:50,32.81716,-123.90772,080.0 100.0,080.0,100.0,513.000,517.280,,5.7741,,5.7740,,5.7741,34.2039,,34.2041,34.2052,,34.2068,34.2055,0.4683,,0.4716,0.4608,,,,,,20.365,20.7709,33.8965,,,,,0.0322,,,,-99.0,,-99.0,-99.0,26.9572,,26.9583,,0.6375,85.2677,,7.523,,1.0304E+03,,1.0000E-12,,5.7300,5.7299,1.0579,,6.707,,,,,,,,,,,,,
CalCOFI,2007SR,060,62,2007_060u,24-Jul-2020 23:22:51,24-Jul-2020 15:22:51,32.81716,-123.90772,080.0 100.0,080.0,100.0,512.000,516.271,,5.7834,,5.7838,,5.7836,34.2037,,34.2039,34.2054,,34.2070,34.2055,0.4621,,0.4651,0.4543,,,,,,20.095,20.4891,33.6606,,,,,0.0321,,,,-99.0,,-99.0,-99.0,26.9559,,26.9573,,0.6375,85.2677,,7.523,,1.0327E+03,,1.0000E-12,,5.7393,5.7397,1.0579,,6.619,,,,,,,,,,,,,
CalCOFI,2007SR,060,62,2007_060u,24-Jul-2020 23:22:52,24-Jul-2020 15:22:52,32.81716,-123.90772,080.0 100.0,080.0,100.0,511.000,515.261,,5.8072,,5.8087,,5.8080,34.2064,,34.2066,34.2090,,34.2106,34.2086,0.4568,,0.4596,0.4487,,,,,,19.863,20.2469,33.4578,,,,,0.0318,,,,-99.0,,-99.0,-99.0,26.9551,,26.9570,,0.6375,85.2677,,7.523,,1.0355E+03,,1.0000E-12,,5.7631,5.7646,1.0579,,6.547,,,,,,,,,,,,,
CalCOFI,2007SR,060,62,2007_060u,24-Jul-2020 23:22:53,24-Jul-2020 15:22:53,32.81716,-123.90773,080.0 100.0,080.0,100.0,510.000,514.252,,5.8355,,5.8427,,5.8391,34.2102,,34.2104,34.2127,,34.2143,34.2124,0.4525,,0.4551,0.4442,,,,,,19.680,20.0559,33.2979,,,,,0.0334,,,,-99.0,,-99.0,-99.0,26.9546,,26.9557,,0.6379,85.2595,,7.522,,1.0376E+03,,1.0000E-12,,5.7914,5.7986,1.0579,,6.491,,,,,,,,,,,,,
CalCOFI,2007SR,060,62,2007_060u,24-Jul-2020 23:22:54,24-Jul-2020 15:22:54,32.81716,-123.90774,080.0 100.0,080.0,100.0,509.000,513.242,,5.8586,,5.8596,,5.8591,34.2121,,34.2123,34.2141,,34.2157,34.2140,0.4563,,0.4591,0.4482,2.2688,,1.4751,0.4802,0.4642,19.843,20.2260,33.4404,98.666,,37.9260,35.6832,0.0325,,,,-99.0,,-99.0,-99.0,26.9533,,26.9547,,0.6375,85.2678,,7.524,,1.0378E+03,,1.0000E-12,,5.8145,5.8155,1.0579,,6.548,32.562,,,,,,,,,,,,
CalCOFI,2007SR,060,62,2007_060u,24-Jul-2020 23:22:55,24-Jul-2020 15:22:55,32.81716,-123.90774,080.0 100.0,080.0,100.0,508.000,512.233,,5.8718,,5.8731,,5.8725,34.2137,,34.2139,34.2155,,34.2171,34.2155,0.4556,,0.4584,0.4475,2.2648,,1.4656,0.4691,0.4583,19.812,20.1936,33.4133,98.492,,37.5363,35.4748,0.0321,,,,-99.0,,-99.0,-99.0,26.9529,,26.9542,,0.6375,85.2677,,7.523,,1.0359E+03,,1.0000E-12,,5.8277,5.8291,1.0579,,6.540,32.515,,,,,,,,,,,,
CalCOFI,2007SR,060,62,2007_060u,24-Jul-2020 23:22:56,24-Jul-2020 15:22:56,32.81716,-123.90774,080.0 100.0,080.0,100.0,507.000,511.223,,5.8845,,5.8868,,5.8857,34.2153,,34.2155,34.2169,,34.2185,34.2170,0.4573,,0.4601,0.4493,2.2580,,1.4493,0.4503,0.4498,19.888,20.2730,33.4797,98.195,,36.8711,35.1754,0.0329,,,,-99.0,,-99.0,-99.0,26.9526,,26.9535,,0.6375,85.2677,,7.523,,1.0339E+03,,1.0000E-12,,5.8405,5.8428,1.0579,,6.567,32.428,,,,,,,,,,,,
CalCOFI,2007SR,060,62,2007_060u,24-Jul-2020 23:22:57,24-Jul-2020 15:22:57,32.81716,-123.90773,080.0 100.0,080.0,100.0,506.000,510.213,,5.8985,,5.8986,,5.8986,34.2151,,34.2153,34.2168,,34.2184,34.2169,0.4650,,0.4682,0.4573,2.2535,,1.4386,0.4379,0.4476,20.222,20.6216,33.7715,98.000,,36.4344,35.1030,0.0332,,,,-99.0,,-99.0,-99.0,26.9507,,26.9520,,0.6375,85.2677,,7.524,,1.0349E+03,,1.0000E-12,,5.8545,5.8546,1.0579,,6.680,32.372,,,,,,,,,,,,
CalCOFI,2007SR,060,62,2007_060u,24-Jul-2020 23:22:58,24-Jul-2020 15:22:58,32.81716,-123.90772,080.0 100.0,080.0,100.0,505.000,509.204,,5.9076,,5.9075,,5.9076,34.2117,,34.2119,34.2130,,34.2146,34.2133,0.4620,,0.4650,0.4542,2.2584,,1.4503,0.4514,0.4528,20.090,20.4839,33.6562,98.212,,36.9092,35.2827,0.0324,,,,-99.0,,-99.0,-99.0,26.9469,,26.9479,,0.6375,85.2677,,7.524,,1.0399E+03,,1.0000E-12,,5.8636,5.8635,1.0579,,6.637,32.448,,,,,,,,,,,,
CalCOFI,2007SR,060,62,2007_060u,24-Jul-2020 23:22:59,24-Jul-2020 15:22:59,32.81716,-123.90774,080.0 100.0,080.0,100.0,504.000,508.194,,5.9089,,5.9114,,5.9102,34.2105,,34.2107,34.2131,,34.2147,34.2127,0.4623,,0.4654,0.4545,2.2549,,1.4419,0.4417,0.4481,20.103,20.4974,33.6676,98.061,,36.5710,35.1193,0.0317,,,,-99.0,,-99.0,-99.0,26.9457,,26.9475,,0.6375,85.2677,,7.524,,1.0449E+03,,1.0000E-12,,5.8651,5.8676,1.0579,,6.642,32.401,,,,,,,,,,,,
CalCOFI,2007SR,060,62,2007_060u,24-Jul-2020 23:23:00,24-Jul-2020 15:23:00,32.81716,-123.90774,080.0 100.0,080.0,100.0,503.000,507.185,,5.9553,,5.9629,,5.9591,34.2169,,34.2171,34.2191,,34.2207,34.2189,0.4665,,0.4697,0.4589,2.2472,,1.4235,0.4204,0.4397,20.288,20.6905,33.8292,97.726,,35.8208,34.8250,0.0324,,,,-99.0,,-99.0,-99.0,26.9450,,26.9458,,0.6375,85.2677,,7.524,,1.0474E+03,,1.0000E-12,,5.9113,5.9189,1.0579,,6.711,32.330,,,,,,,,,,,,
CalCOFI,2007SR,060,62,2007_060u,24-Jul-2020 23:23:01,24-Jul-2020 15:23:01,32.81716,-123.90774,080.0 100.0,080.0,100.0,502.000,506.175,,5.9874,,5.9888,,5.9881,34.2168,,34.2170,34.2181,,34.2197,34.2184,0.4642,,0.4673,0.4565,2.2475,,1.4243,0.4212,0.4389,20.187,20.5851,33.7410,97.741,,35.8544,34.7977,0.0325,,,,-99.0,,-99.0,-99.0,26.9409,,26.9418,,0.6375,85.2677,,7.524,,1.0444E+03,,1.0000E-12,,5.9434,5.9448,1.0579,,6.682,32.355,,,,,,,,,,,,
CalCOFI,2007SR,060,62,2007_060u,24-Jul-2020 23:23:02,24-Jul-2020 15:23:02,32.81716,-123.90774,080.0 100.0,080.0,100.0,501.000,505.166,,5.9899,,5.9910,,5.9905,34.2155,,34.2157,34.2168,,34.2184,34.2171,0.4702,,0.4736,0.4628,2.2462,,1.4212,0.4176,0.4402,20.449,20.8586,33.9699,97.686,,35.7312,34.8506,0.0320,,,,-99.0,,-99.0,-99.0,26.9395,,26.9404,,0.6376,85.2650,,7.524,,1.0396E+03,,1.0000E-12,,5.9461,5.9471,1.0579,,6.769,32.338,,,,,,,,,,,,
CalCOFI,2007SR,060,62,2007_060u,24-Jul-2020 23:23:03,24-Jul-2020 15:23:03,32.81716,-123.90774,080.0 100.0,080.0,100.0,500.000,504.156,,5.9868,,5.9868,,5.9868,34.2137,,34.2139,34.2150,,34.2166,34.2153,0.4770,,0.4807,0.4699,2.2454,,1.4192,0.4154,0.4427,20.743,21.1655,34.2268,97.651,,35.6528,34.9398,0.0322,,,,-99.0,,-99.0,-99.0,26.9385,,26.9395,,0.6378,85.2607,,7.524,,1.0378E+03,,1.0000E-12,,5.9431,5.9430,1.0579,,6.866,32.322,,,,,,,,,,,,
CalCOFI,2007SR,060,62,2007_060u,24-Jul-2020 23:23:04,24-Jul-2020 15:23:04,32.81716,-123.90774,080.0 100.0,080.0,100.0,499.000,503.147,,5.9769,,5.9773,,5.9771,34.2105,,34.2107,34.2116,,34.2132,34.2120,0.4814,,0.4853,0.4746,2.2473,,1.4238,0.4207,0.4477,20.933,21.3639,34.3928,97.734,,35.8387,35.1158,0.0337,,,,-99.0,,-99.0,-99.0,26.9372,,26.9380,,0.6375,85.2678,,7.524,,1.0390E+03,,1.0000E-12,,5.9332,5.9336,1.0579,,6.927,32.342,,,,,,,,,,,,
CalCOFI,2007SR,060,62,2007_060u,24-Jul-2020 23:23:05,24-Jul-2020 15:23:05,32.81716,-123.90774,080.0 100.0,080.0,100.0,498.000,502.137,,5.9728,,5.9730,,5.9729,34.2093,,34.2095,34.2107,,34.2123,34.2109,0.4787,,0.4825,0.4717,2.2473,,1.4238,0.4207,0.4462,20.817,21.2428,34.2915,97.732,,35.8342,35.0629,0.0327,,,,-99.0,,-99.0,-99.0,26.9367,,26.9378,,0.6375,85.2677,,7.524,,1.0413E+03,,1.0000E-12,,5.9293,5.9295,1.0579,,6.888,32.338,,,,,,,,,,,,
CalCOFI,2007SR,060,62,2007_060u,24-Jul-2020 23:23:06,24-Jul-2020 15:23:06,32.81716,-123.90774,080.0 100.0,080.0,100.0,497.000,501.128,,5.9792,,5.9797,,5.9795,34.2093,,34.2095,34.2107,,34.2123,34.2109,0.4820,,0.4859,0.4752,2.2466,,1.4221,0.4188,0.4470,20.961,21.3931,34.4173,97.702,,35.7670,35.0922,0.0324,,,,-99.0,,-99.0,-99.0,26.9359,,26.9370,,0.6375,85.2677,,7.524,,1.0429E+03,,1.0000E-12,,5.9357,5.9362,1.0579,,6.937,32.333,,,,,,,,,,,,
CalCOFI,2007SR,060,62,2007_060u,24-Jul-2020 23:23:07,24-Jul-2020 15:23:07,32.81716,-123.90774,080.0 100.0,080.0,100.0,496.000,500.118,,5.9842,,5.9846,,5.9844,34.2094,,34.2096,34.2109,,34.2125,34.2111,0.4913,,0.4957,0.4849,2.2460,,1.4207,0.4171,0.4510,21.366,21.8159,34.7712,97.676,,35.7088,35.2400,0.0330,,,,-99.0,,-99.0,-99.0,26.9354,,26.9365,,0.6375,85.2677,,7.524,,1.0435E+03,,1.0000E-12,,5.9408,5.9412,1.0579,,7.071,32.328,,,,,,,,,,,,
CalCOFI,2007SR,060,62,2007_060u,24-Jul-2020 23:23:08,24-Jul-2020 15:23:08,32.81716,-123.90774,080.0 100.0,080.0,100.0,495.000,499.108,,5.9814,,5.9809,,5.9812,34.2059,,34.2061,34.2070,,34.2086,34.2074,0.5005,,0.5053,0.4946,2.2402,,1.4068,0.4010,0.4478,21.768,22.2355,35.1225,97.423,,35.1422,35.1324,0.0328,,,,-99.0,,-99.0,-99.0,26.9330,,26.9339,,0.6379,85.2590,,7.524,,1.0432E+03,,1.0000E-12,,5.9381,5.9376,1.0579,,7.204,32.241,,,,,,,,,,,,
CalCOFI,2007SR,060,62,2007_060u,24-Jul-2020 23:23:09,24-Jul-2020 15:23:09,32.81716,-123.90774,080.0 100.0,080.0,100.0,494.000,498.099,,5.9746,,5.9741,,5.9744,34.2014,,34.2016,34.2020,,34.2036,34.2026,0.5081,,0.5132,0.5026,2.2448,,1.4178,0.4138,0.4582,22.095,22.5769,35.4082,97.623,,35.5901,35.4992,0.0332,,,,-99.0,,-99.0,-99.0,26.9302,,26.9307,,0.6375,85.2679,,7.524,,1.0416E+03,,1.0000E-12,,5.9314,5.9309,1.0579,,7.311,32.301,,,,,,,,,,,,
CalCOFI,2007SR,060,62,2007_060u,24-Jul-2020 23:23:10,24-Jul-2020 15:23:10,32.81716,-123.90774,080.0 100.0,080.0,100.0,493.000,497.090,,5.9801,,5.9800,,5.9801,34.2003,,34.2005,34.2015,,34.2031,34.2018,0.5090,,0.5142,0.5035,2.2431,,1.4138,0.4091,0.4563,22.138,22.6218,35.4458,97.550,,35.4266,35.4362,0.0322,,,,-99.0,,-99.0,-99.0,26.9287,,26.9296,,0.6375,85.2677,,7.524,,1.0416E+03,,1.0000E-12,,5.9370,5.9369,1.0579,,7.326,32.281,,,,,,,,,,,,
CalCOFI,2007SR,060,62,2007_060u,24-Jul-2020 23:23:11,24-Jul-2020 15:23:11,32.81716,-123.90774,080.0 100.0,080.0,100.0,492.000,496.080,,5.9747,,5.9748,,5.9748,34.1985,,34.1987,34.1996,,34.2012,34.2000,0.5080,,0.5131,0.5025,2.2337,,1.3913,0.3830,0.4428,22.090,22.5717,35.4038,97.141,,34.5106,34.9572,0.0323,,,,-99.0,,-99.0,-99.0,26.9278,,26.9287,,0.6375,85.2677,,7.524,,1.0400E+03,,1.0000E-12,,5.9317,5.9318,1.0579,,7.309,32.141,,,,,,,,,,,,
CalCOFI,2007SR,060,62,2007_060u,24-Jul-2020 23:23:12,24-Jul-2020 15:23:12,32.81716,-123.90774,080.0 100.0,080.0,100.0,491.000,495.070,,5.9773,,5.9785,,5.9779,34.1985,,34.1987,34.2000,,34.2016,34.2002,0.5092,,0.5144,0.5037,2.2445,,1.4171,0.4129,0.4583,22.145,22.6291,35.4519,97.612,,35.5655,35.5087,0.0311,,,,-99.0,,-99.0,-99.0,26.9275,,26.9286,,0.6375,85.2677,,7.524,,1.0397E+03,,1.0000E-12,,5.9344,5.9356,1.0579,,7.327,32.300,,,,,,,,,,,,
CalCOFI,2007SR,060,62,2007_060u,24-Jul-2020 23:23:13,24-Jul-2020 15:23:13,32.81716,-123.90774,080.0 100.0,080.0,100.0,490.000,494.061,,5.9883,,5.9899,,5.9891,34.1997,,34.1999,34.2020,,34.2036,34.2018,0.5112,,0.5165,0.5058,2.2453,,1.4190,0.4152,0.4605,22.231,22.7188,35.5270,97.647,,35.6438,35.5854,0.0317,,,,-99.0,,-99.0,-99.0,26.9271,,26.9288,,0.6375,85.2677,,7.524,,1.0414E+03,,1.0000E-12,,5.9454,5.9470,1.0579,,7.358,32.320,,,,,,,,,,,,
CalCOFI,2007SR,060,62,2007_060u,24-Jul-2020 23:23:14,24-Jul-2020 15:23:14,32.81716,-123.90774,080.0 100.0,080.0,100.0,489.000,493.051,,6.0079,,6.0083,,6.0081,34.2004,,34.2006,34.2013,,34.2029,34.2018,0.5226,,0.5284,0.5178,2.2394,,1.4049,0.3988,0.4583,22.729,23.2387,35.9622,97.388,,35.0638,35.5130,0.0324,,,,-99.0,,-99.0,-99.0,26.9252,,26.9258,,0.6375,85.2677,,7.524,,1.0424E+03,,1.0000E-12,,5.9651,5.9655,1.0579,,7.526,32.248,,,,,,,,,,,,
CalCOFI,2007SR,060,62,2007_060u,24-Jul-2020 23:23:15,24-Jul-2020 15:23:15,32.81716,-123.90774,080.0 100.0,080.0,100.0,488.000,492.042,,5.9929,,5.9932,,5.9931,34.1951,,34.1953,34.1963,,34.1979,34.1966,0.5440,,0.5507,0.5403,2.2396,,1.4054,0.3994,0.4699,23.659,24.2095,36.7749,97.400,,35.0907,35.9328,0.0323,,,,-99.0,,-99.0,-99.0,26.9228,,26.9238,,0.6375,85.2677,,7.525,,1.0446E+03,,1.0000E-12,,5.9502,5.9505,1.0579,,7.831,32.240,,,,,,,,,,,,
CalCOFI,2007SR,060,62,2007_060u,24-Jul-2020 23:23:16,24-Jul-2020 15:23:16,32.81716,-123.90774,080.0 100.0,080.0,100.0,487.000,491.033,,5.9616,,5.9683,,5.9650,34.1852,,34.1854,34.1883,,34.1899,34.1877,0.5627,,0.5703,0.5599,2.2424,,1.4121,0.4071,0.4835,24.472,25.0582,37.4853,97.522,,35.3639,36.4246,0.0326,,,,-99.0,,-99.0,-99.0,26.9189,,26.9206,,0.6375,85.2677,,7.527,,1.0454E+03,,1.0000E-12,,5.9192,5.9258,1.0579,,8.094,32.259,,,,,,,,,,,,
CalCOFI,2007SR,060,62,2007_060u,24-Jul-2020 23:23:18,24-Jul-2020 15:23:18,32.81716,-123.90774,080.0 100.0,080.0,100.0,486.000,490.023,,5.9523,,5.9524,,5.9524,34.1798,,34.1800,34.1810,,34.1826,34.1813,0.5709,,0.5788,0.5685,2.2405,,1.4075,0.4019,0.4852,24.828,25.4298,37.7963,97.439,,35.1780,36.4872,0.0332,,,,-99.0,,-99.0,-99.0,26.9159,,26.9167,,0.6375,85.2677,,7.527,,1.0440E+03,,1.0000E-12,,5.9099,5.9100,1.0579,,8.210,32.218,,,,,,,,,,,,
CalCOFI,2007SR,060,62,2007_060u,24-Jul-2020 23:23:19,24-Jul-2020 15:23:19,32.81716,-123.90774,080.0 100.0,080.0,100.0,485.000,489.014,,5.9434,,5.9435,,5.9435,34.1764,,34.1766,34.1776,,34.1792,34.1779,0.5779,,0.5861,0.5759,2.2492,,1.4283,0.4259,0.5009,25.131,25.7462,38.0611,97.818,,36.0268,37.0440,0.0323,,,,-99.0,,-99.0,-99.0,26.9142,,26.9152,,0.6375,85.2677,,7.528,,1.0433E+03,,1.0000E-12,,5.9012,5.9013,1.0579,,8.308,32.336,,,,,,,,,,,,
CalCOFI,2007SR,060,62,2007_060u,24-Jul-2020 23:23:19,24-Jul-2020 15:23:19,32.81716,-123.90774,080.0 100.0,080.0,100.0,484.000,488.004,,5.9341,,5.9339,,5.9340,34.1737,,34.1739,34.1750,,34.1766,34.1753,0.5824,,0.5908,0.5806,2.2411,,1.4090,0.4035,0.4921,25.330,25.9539,38.2350,97.466,,35.2385,36.7368,0.0326,,,,-99.0,,-99.0,-99.0,26.9133,,26.9143,,0.6375,85.2677,,7.529,,1.0416E+03,,1.0000E-12,,5.8920,5.8918,1.0579,,8.371,32.212,,,,,,,,,,,,
CalCOFI,2007SR,060,62,2007_060u,24-Jul-2020 23:23:20,24-Jul-2020 15:23:20,32.81716,-123.90774,080.0 100.0,080.0,100.0,483.000,486.995,,5.9318,,5.9314,,5.9316,34.1730,,34.1732,34.1741,,34.1757,34.1745,0.5907,,0.5995,0.5893,2.2423,,1.4118,0.4069,0.4981,25.689,26.3286,38.5487,97.516,,35.3505,36.9496,0.0328,,,,-99.0,,-99.0,-99.0,26.9130,,26.9139,,0.6377,85.2627,,7.529,,1.0416E+03,,1.0000E-12,,5.8898,5.8894,1.0579,,8.490,32.227,,,,,,,,,,,,
CalCOFI,2007SR,060,62,2007_060u,24-Jul-2020 23:23:21,24-Jul-2020 15:23:21,32.81716,-123.90774,080.0 100.0,080.0,100.0,482.000,485.985,,5.9305,,5.9306,,5.9306,34.1716,,34.1718,34.1731,,34.1747,34.1733,0.5960,,0.6051,0.5949,2.2450,,1.4183,0.4143,0.5046,25.921,26.5708,38.7514,97.634,,35.6147,37.1831,0.0325,,,,-99.0,,-99.0,-99.0,26.9120,,26.9132,,0.6381,85.2542,,7.529,,1.0416E+03,,1.0000E-12,,5.8886,5.8887,1.0579,,8.566,32.265,,,,,,,,,,,,
CalCOFI,2007SR,060,62,2007_060u,24-Jul-2020 23:23:22,24-Jul-2020 15:23:22,32.81716,-123.90774,080.0 100.0,080.0,100.0,481.000,484.976,,5.9368,,5.9377,,5.9373,34.1706,,34.1708,34.1720,,34.1736,34.1722,0.6000,,0.6092,0.5991,2.2443,,1.4166,0.4124,0.5058,26.092,26.7493,38.9009,97.602,,35.5431,37.2220,0.0314,,,,-99.0,,-99.0,-99.0,26.9105,,26.9114,,0.6384,85.2485,,7.529,,1.0416E+03,,1.0000E-12,,5.8950,5.8959,1.0579,,8.624,32.259,,,,,,,,,,,,
CalCOFI,2007SR,060,62,2007_060u,24-Jul-2020 23:23:23,24-Jul-2020 15:23:23,32.81716,-123.90774,080.0 100.0,080.0,100.0,480.000,483.966,,5.9500,,5.9503,,5.9502,34.1687,,34.1689,34.1702,,34.1718,34.1704,0.6050,,0.6145,0.6043,2.2449,,1.4180,0.4140,0.5092,26.313,26.9800,39.0940,97.630,,35.6058,37.3499,0.0320,,,,-99.0,,-99.0,-99.0,26.9073,,26.9085,,0.6420,85.1712,,7.529,,1.0422E+03,,1.0000E-12,,5.9082,5.9085,1.0579,,8.699,32.277,,,,,,,,,,,,
CalCOFI,2007SR,060,62,2007_060u,24-Jul-2020 23:23:24,24-Jul-2020 15:23:24,32.81716,-123.90774,080.0 100.0,080.0,100.0,479.000,482.957,,5.9557,,5.9567,,5.9562,34.1672,,34.1674,34.1684,,34.1700,34.1687,0.6079,,0.6175,0.6074,2.2454,,1.4192,0.4154,0.5114,26.437,27.1095,39.2023,97.653,,35.6573,37.4298,0.0319,,,,-99.0,,-99.0,-99.0,26.9054,,26.9062,,0.6376,85.2651,,7.529,,1.0435E+03,,1.0000E-12,,5.9140,5.9150,1.0579,,8.741,32.290,,,,,,,,,,,,
CalCOFI,2007SR,060,62,2007_060u,24-Jul-2020 23:23:25,24-Jul-2020 15:23:25,32.81716,-123.90774,080.0 100.0,080.0,100.0,478.000,481.947,,5.9568,,5.9568,,5.9568,34.1659,,34.1661,34.1675,,34.1691,34.1676,0.6090,,0.6186,0.6085,2.2437,,1.4152,0.4107,0.5096,26.485,27.1596,39.2443,97.580,,35.4938,37.3691,0.0322,,,,-99.0,,-99.0,-99.0,26.9042,,26.9054,,0.6391,85.2326,,7.529,,1.0435E+03,,1.0000E-12,,5.9152,5.9151,1.0579,,8.757,32.265,,,,,,,,,,,,
CalCOFI,2007SR,060,62,2007_060u,24-Jul-2020 23:23:26,24-Jul-2020 15:23:26,32.81716,-123.90774,080.0 100.0,080.0,100.0,477.000,480.938,,5.9600,,5.9599,,5.9600,34.1655,,34.1657,34.1670,,34.1686,34.1672,0.6087,,0.6183,0.6082,2.2449,,1.4180,0.4140,0.5111,26.474,27.1481,39.2347,97.630,,35.6058,37.4203,0.0326,,,,-99.0,,-99.0,-99.0,26.9034,,26.9047,,0.6375,85.2675,,7.529,,1.0435E+03,,1.0000E-12,,5.9185,5.9183,1.0579,,8.754,32.284,,,,,,,,,,,,
CalCOFI,2007SR,060,62,2007_060u,24-Jul-2020 23:23:27,24-Jul-2020 15:23:27,32.81716,-123.90774,080.0 100.0,080.0,100.0,476.000,479.929,,5.9633,,5.9639,,5.9636,34.1655,,34.1657,34.1670,,34.1686,34.1672,0.6002,,0.6094,0.5993,2.2422,,1.4116,0.4066,0.5030,26.104,26.7619,38.9113,97.514,,35.3460,37.1287,0.0325,,,,-99.0,,-99.0,-99.0,26.9030,,26.9042,,0.6375,85.2677,,7.529,,1.0435E+03,,1.0000E-12,,5.9219,5.9224,1.0579,,8.633,32.249,,,,,,,,,,,,
CalCOFI,2007SR,060,62,2007_060u,24-Jul-2020 23:23:28,24-Jul-2020 15:23:28,32.81716,-123.90774,080.0 100.0,080.0,100.0,475.000,478.919,,5.9743,,5.9773,,5.9758,34.1672,,34.1674,34.1696,,34.1712,34.1693,0.5841,,0.5926,0.5824,2.2360,,1.3968,0.3894,0.4859,25.403,26.0301,38.2988,97.242,,34.7368,36.5178,0.0325,,,,-99.0,,-99.0,-99.0,26.9030,,26.9045,,0.6375,85.2677,,7.529,,1.0412E+03,,1.0000E-12,,5.9329,5.9359,1.0579,,8.403,32.169,,,,,,,,,,,,
CalCOFI,2007SR,060,62,2007_060u,24-Jul-2020 23:23:29,24-Jul-2020 15:23:29,32.81716,-123.90774,080.0 100.0,080.0,100.0,474.000,477.910,,6.0140,,6.0309,,6.0225,34.1744,,34.1746,34.1787,,34.1803,34.1775,0.5787,,0.5870,0.5767,2.2332,,1.3901,0.3817,0.4792,25.168,25.7848,38.0934,97.120,,34.4636,36.2785,0.0319,,,,-99.0,,-99.0,-99.0,26.9037,,26.9050,,0.6375,85.2677,,7.528,,1.0375E+03,,1.0000E-12,,5.9725,5.9893,1.0579,,8.333,32.171,,,,,,,,,,,,
CalCOFI,2007SR,060,62,2007_060u,24-Jul-2020 23:23:30,24-Jul-2020 15:23:30,32.81716,-123.90774,080.0 100.0,080.0,100.0,473.000,476.900,,6.0761,,6.0811,,6.0786,34.1798,,34.1800,34.1822,,34.1838,34.1819,0.5587,,0.5661,0.5557,2.2276,,1.3767,0.3662,0.4610,24.296,24.8745,37.3315,96.878,,33.9216,35.6266,0.0322,,,,-99.0,,-99.0,-99.0,26.9002,,26.9014,,0.6375,85.2677,,7.528,,1.0351E+03,,1.0000E-12,,6.0345,6.0395,1.0579,,8.057,32.129,,,,,,,,,,,,
CalCOFI,2007SR,060,62,2007_060u,24-Jul-2020 23:23:31,24-Jul-2020 15:23:31,32.81716,-123.90774,080.0 100.0,080.0,100.0,472.000,475.891,,6.0973,,6.1003,,6.0988,34.1823,,34.1825,34.1856,,34.1872,34.1849,0.5505,,0.5575,0.5471,2.2353,,1.3951,0.3875,0.4673,23.941,24.5039,37.0213,97.212,,34.6696,35.8455,0.0320,,,,-99.0,,-99.0,-99.0,26.8995,,26.9017,,0.6375,85.2677,,7.528,,1.0345E+03,,1.0000E-12,,6.0557,6.0587,1.0579,,7.943,32.255,,,,,,,,,,,,
CalCOFI,2007SR,060,62,2007_060u,24-Jul-2020 23:23:32,24-Jul-2020 15:23:32,32.81716,-123.90774,080.0 100.0,080.0,100.0,471.000,474.882,,6.1793,,6.1846,,6.1820,34.1948,,34.1950,34.1983,,34.1999,34.1975,0.5493,,0.5563,0.5458,2.2323,,1.3880,0.3792,0.4625,23.889,24.4496,36.9758,97.082,,34.3785,35.6772,0.0319,,,,-99.0,,-99.0,-99.0,26.8989,,26.9010,,0.6374,85.2699,,7.528,,1.0365E+03,,1.0000E-12,,6.1375,6.1427,1.0579,,7.941,32.278,,,,,,,,,,,,
CalCOFI,2007SR,060,62,2007_060u,24-Jul-2020 23:23:33,24-Jul-2020 15:23:33,32.81716,-123.90774,080.0 100.0,080.0,100.0,470.000,473.872,,6.2115,,6.2130,,6.2123,34.1950,,34.1952,34.1969,,34.1985,34.1969,0.5534,,0.5605,0.5501,2.2258,,1.3725,0.3612,0.4557,24.066,24.6344,37.1305,96.799,,33.7447,35.4376,0.0327,,,,-99.0,,-99.0,-99.0,26.8949,,26.8963,,0.6374,85.2706,,7.528,,1.0392E+03,,1.0000E-12,,6.1697,6.1712,1.0579,,8.006,32.205,,,,,,,,,,,,
CalCOFI,2007SR,060,62,2007_060u,24-Jul-2020 23:23:34,24-Jul-2020 15:23:34,32.81716,-123.90774,080.0 100.0,080.0,100.0,469.000,472.863,,6.2183,,6.2189,,6.2186,34.1932,,34.1934,34.1945,,34.1961,34.1948,0.5591,,0.5665,0.5561,2.2272,,1.3758,0.3651,0.4606,24.315,24.8943,37.3481,96.860,,33.8813,35.6147,0.0328,,,,-99.0,,-99.0,-99.0,26.8927,,26.8936,,0.6369,85.2797,,7.528,,1.0416E+03,,1.0000E-12,,6.1765,6.1771,1.0579,,8.090,32.229,,,,,,,,,,,,
CalCOFI,2007SR,060,62,2007_060u,24-Jul-2020 23:23:36,24-Jul-2020 15:23:36,32.81716,-123.90774,080.0 100.0,080.0,100.0,468.000,471.853,,6.2161,,6.2167,,6.2164,34.1913,,34.1915,34.1922,,34.1938,34.1927,0.5699,,0.5778,0.5675,2.2236,,1.3672,0.3551,0.4613,24.787,25.3870,37.7605,96.706,,33.5364,35.6485,0.0337,,,,-99.0,,-99.0,-99.0,26.8914,,26.8921,,0.6368,85.2835,,7.528,,1.0384E+03,,1.0000E-12,,6.1744,6.1751,1.0579,,8.247,32.175,,,,,,,,,,,,
CalCOFI,2007SR,060,62,2007_060u,24-Jul-2020 23:23:37,24-Jul-2020 15:23:37,32.81716,-123.90774,080.0 100.0,080.0,100.0,467.000,470.844,,6.2150,,6.2152,,6.2151,34.1878,,34.1880,34.1889,,34.1905,34.1893,0.5764,,0.5846,0.5743,2.2247,,1.3698,0.3581,0.4662,25.067,25.6793,38.0052,96.755,,33.6461,35.8257,0.0325,,,,-99.0,,-99.0,-99.0,26.8888,,26.8896,,0.6371,85.2773,,7.528,,1.0343E+03,,1.0000E-12,,6.1735,6.1736,1.0579,,8.340,32.190,,,,,,,,,,,,
CalCOFI,2007SR,060,62,2007_060u,24-Jul-2020 23:23:38,24-Jul-2020 15:23:38,32.81716,-123.90774,080.0 100.0,080.0,100.0,466.000,469.835,,6.2239,,6.2233,,6.2236,34.1876,,34.1878,34.1889,,34.1905,34.1892,0.5802,,0.5886,0.5783,2.2239,,1.3679,0.3559,0.4671,25.231,25.8505,38.1485,96.720,,33.5677,35.8581,0.0322,,,,-99.0,,-99.0,-99.0,26.8875,,26.8885,,0.6370,85.2778,,7.530,,1.0320E+03,,1.0000E-12,,6.1824,6.1818,1.0579,,8.396,32.184,,,,,,,,,,,,
CalCOFI,2007SR,060,62,2007_060u,24-Jul-2020 23:23:38,24-Jul-2020 15:23:38,32.81716,-123.90774,080.0 100.0,080.0,100.0,465.000,468.825,,6.2361,,6.2371,,6.2366,34.1870,,34.1872,34.1884,,34.1900,34.1886,0.5793,,0.5876,0.5773,2.2248,,1.3701,0.3584,0.4679,25.194,25.8119,38.1162,96.758,,33.6528,35.8845,0.0324,,,,-99.0,,-99.0,-99.0,26.8854,,26.8864,,0.6370,85.2789,,7.531,,1.0302E+03,,1.0000E-12,,6.1946,6.1956,1.0579,,8.386,32.207,,,,,,,,,,,,